When you browse on this site, cookies collect data to enhance your experience and personalize the content and advertising you see.
Visit our Privacy Policy to learn more. By continuing to use the site, you agree to this use of cookies and data.
  • En España
  • Lista de países
  • Para 7 días
  • Temperatura del agua
  • El tiempo en el mapa
  • Informadores
  • user-avatar
    Iniciar sesión

    Tiempo cada hora Madrid

    Hoy, 18 Agosto, Domingo

    Tiempo Temperatura Precipitaciones Viento Presión Humedad
    00:00 +28°C° 0 mm 2 mps 705 mmHg 17%
    01:00 +27°C° 0 mm 2 mps 705 mmHg 19%
    02:00 +26°C° 0 mm 2 mps 705 mmHg 21%
    03:00 +25°C° 0 mm 2 mps 705 mmHg 22%
    04:00 +24°C° 0 mm 1 mps 705 mmHg 24%
    05:00 +24°C° 0 mm 1 mps 705 mmHg 27%
    06:00 +23°C° 0 mm 1 mps 705 mmHg 29%
    07:00 +25°C° 0 mm 2 mps 706 mmHg 26%
    08:00 +28°C° 0 mm 2 mps 706 mmHg 24%
    09:00 +30°C° 0 mm 2 mps 707 mmHg 21%
    10:00 +33°C° 0 mm 3 mps 706 mmHg 18%
    11:00 +34°C° 0 mm 4 mps 706 mmHg 14%
    12:00 +36°C° 0 mm 6 mps 706 mmHg 11%
    13:00 +38°C° 0 mm 6 mps 706 mmHg 11%
    14:00 +38°C° 0 mm 6 mps 706 mmHg 10%
    15:00 +38°C° 0 mm 7 mps 705 mmHg 10%
    16:00 +38°C° 0 mm 6 mps 705 mmHg 10%
    17:00 +36°C° 0 mm 6 mps 705 mmHg 11%
    18:00 +36°C° 0 mm 5 mps 705 mmHg 12%
    19:00 +33°C° 0 mm 5 mps 705 mmHg 17%
    20:00 +30°C° 0 mm 4 mps 706 mmHg 21%
    21:00 +28°C° 0 mm 4 mps 706 mmHg 26%
    22:00 +27°C° 0 mm 3 mps 706 mmHg 32%
    23:00 +26°C° 0 mm 3 mps 706 mmHg 38%

    Mañana, 19 Agosto, Lunes

    Tiempo Temperatura Precipitaciones Viento Presión Humedad
    00:00 +25°C° 0 mm 2 mps 706 mmHg 45%
    01:00 +24°C° 0 mm 2 mps 706 mmHg 48%
    02:00 +24°C° 0 mm 2 mps 706 mmHg 51%
    03:00 +23°C° 0 mm 2 mps 706 mmHg 55%
    04:00 +21°C° 0 mm 2 mps 706 mmHg 58%
    05:00 +21°C° 0 mm 2 mps 706 mmHg 61%
    06:00 +21°C° 0 mm 2 mps 706 mmHg 64%
    07:00 +23°C° 0 mm 2 mps 706 mmHg 57%
    08:00 +25°C° 0 mm 2 mps 706 mmHg 50%
    09:00 +27°C° 0 mm 2 mps 707 mmHg 43%
    10:00 +29°C° 0 mm 2 mps 707 mmHg 39%
    11:00 +30°C° 0 mm 3 mps 707 mmHg 34%
    12:00 +33°C° 0 mm 3 mps 707 mmHg 30%
    13:00 +34°C° 0 mm 4 mps 706 mmHg 27%
    14:00 +34°C° 0 mm 4 mps 706 mmHg 25%
    15:00 +35°C° 0 mm 5 mps 706 mmHg 22%
    16:00 +35°C° 0 mm 5 mps 706 mmHg 21%
    17:00 +34°C° 0 mm 5 mps 705 mmHg 19%
    18:00 +34°C° 0 mm 4 mps 705 mmHg 18%
    19:00 +32°C° 0 mm 4 mps 706 mmHg 19%
    20:00 +30°C° 0 mm 3 mps 706 mmHg 19%
    21:00 +28°C° 0 mm 3 mps 707 mmHg 20%
    22:00 +27°C° 0 mm 3 mps 707 mmHg 24%
    23:00 +27°C° 0 mm 2 mps 707 mmHg 29%

    Pasado mañana, 20 Agosto, Martes

    Tiempo Temperatura Precipitaciones Viento Presión Humedad
    00:00 +26°C° 0 mm 2 mps 707 mmHg 33%
    01:00 +26°C° 0 mm 2 mps 707 mmHg 36%
    02:00 +25°C° 0 mm 2 mps 707 mmHg 39%
    03:00 +25°C° 0 mm 2 mps 707 mmHg 42%
    04:00 +24°C° 0 mm 2 mps 707 mmHg 46%
    05:00 +24°C° 0 mm 2 mps 708 mmHg 50%
    06:00 +23°C° 0 mm 2 mps 708 mmHg 54%
    07:00 +24°C° 0 mm 3 mps 708 mmHg 51%
    08:00 +26°C° 0 mm 4 mps 708 mmHg 48%
    09:00 +27°C° 0 mm 4 mps 709 mmHg 45%
    10:00 +28°C° 0 mm 4 mps 709 mmHg 39%
    11:00 +30°C° 0 mm 3 mps 709 mmHg 34%
    12:00 +31°C° 0 mm 3 mps 709 mmHg 29%
    13:00 +33°C° 0 mm 3 mps 709 mmHg 27%
    14:00 +34°C° 0 mm 3 mps 709 mmHg 24%
    15:00 +34°C° 0 mm 3 mps 708 mmHg 22%
    16:00 +34°C° 0 mm 4 mps 709 mmHg 23%
    17:00 +34°C° 0 mm 4 mps 709 mmHg 24%
    18:00 +33°C° 0 mm 5 mps 709 mmHg 25%
    19:00 +30°C° 0 mm 5 mps 709 mmHg 33%
    20:00 +28°C° 0 mm 6 mps 710 mmHg 41%
    21:00 +24°C° 0 mm 7 mps 710 mmHg 49%
    22:00 +23°C° 0 mm 5 mps 710 mmHg 51%
    23:00 +22°C° 0 mm 4 mps 710 mmHg 53%

    21 Agosto, Miércoles

    Tiempo Temperatura Precipitaciones Viento Presión Humedad
    00:00 +21°C° 0 mm 3 mps 710 mmHg 55%
    01:00 +21°C° 0 mm 3 mps 710 mmHg 58%
    02:00 +21°C° 0 mm 3 mps 710 mmHg 60%
    03:00 +20°C° 0 mm 3 mps 709 mmHg 62%
    04:00 +20°C° 0 mm 3 mps 710 mmHg 63%
    05:00 +20°C° 0 mm 3 mps 710 mmHg 65%
    06:00 +20°C° 0 mm 3 mps 710 mmHg 66%
    07:00 +21°C° 0 mm 3 mps 710 mmHg 64%
    08:00 +22°C° 0 mm 3 mps 710 mmHg 62%
    09:00 +24°C° 0 mm 3 mps 710 mmHg 60%
    10:00 +26°C° 0 mm 3 mps 710 mmHg 54%
    11:00 +28°C° 0 mm 2 mps 709 mmHg 48%
    12:00 +30°C° 0 mm 2 mps 709 mmHg 42%
    13:00 +31°C° 0 mm 2 mps 709 mmHg 37%
    14:00 +32°C° 0 mm 2 mps 709 mmHg 32%
    15:00 +33°C° 0 mm 1 mps 708 mmHg 26%
    16:00 +33°C° 0 mm 1 mps 708 mmHg 25%
    17:00 +34°C° 0 mm 2 mps 708 mmHg 24%
    18:00 +32°C° 0 mm 2 mps 708 mmHg 23%
    19:00 +31°C° 0 mm 2 mps 708 mmHg 30%
    20:00 +29°C° 0 mm 2 mps 709 mmHg 36%
    21:00 +27°C° 0 mm 3 mps 709 mmHg 42%
    22:00 +26°C° 0 mm 3 mps 709 mmHg 48%
    23:00 +25°C° 0 mm 3 mps 709 mmHg 54%

    22 Agosto, Jueves

    Tiempo Temperatura Precipitaciones Viento Presión Humedad
    00:00 +24°C° 0 mm 3 mps 709 mmHg 60%
    01:00 +24°C° 0 mm 3 mps 709 mmHg 61%
    02:00 +24°C° 0 mm 3 mps 709 mmHg 63%
    03:00 +22°C° 0 mm 3 mps 709 mmHg 65%
    04:00 +22°C° 0 mm 3 mps 709 mmHg 66%
    05:00 +23°C° 0 mm 2 mps 709 mmHg 66%
    06:00 +21°C° 0 mm 2 mps 709 mmHg 67%
    07:00 +24°C° 0 mm 2 mps 709 mmHg 60%
    08:00 +26°C° 0 mm 2 mps 710 mmHg 53%
    09:00 +28°C° 0 mm 2 mps 710 mmHg 45%
    10:00 +29°C° 0 mm 2 mps 709 mmHg 40%
    11:00 +31°C° 0 mm 2 mps 709 mmHg 34%
    12:00 +34°C° 0 mm 2 mps 709 mmHg 28%
    13:00 +35°C° 0 mm 2 mps 709 mmHg 26%
    14:00 +35°C° 0 mm 2 mps 708 mmHg 23%
    15:00 +36°C° 0 mm 2 mps 708 mmHg 20%
    16:00 +36°C° 0 mm 2 mps 708 mmHg 20%
    17:00 +35°C° 0 mm 3 mps 708 mmHg 20%
    18:00 +35°C° 0 mm 3 mps 708 mmHg 20%
    19:00 +33°C° 0 mm 4 mps 708 mmHg 25%
    20:00 +32°C° 0 mm 5 mps 708 mmHg 29%
    21:00 +29°C° 0 mm 6 mps 708 mmHg 34%
    22:00 +28°C° 0 mm 5 mps 708 mmHg 39%
    23:00 +26°C° 0 mm 4 mps 708 mmHg 45%

    23 Agosto, Viernes

    Tiempo Temperatura Precipitaciones Viento Presión Humedad
    00:00 +25°C° 0 mm 3 mps 708 mmHg 50%
    01:00 +25°C° 0 mm 3 mps 708 mmHg 52%
    02:00 +24°C° 0 mm 3 mps 708 mmHg 54%
    03:00 +24°C° 0 mm 3 mps 708 mmHg 56%
    04:00 +22°C° 0 mm 3 mps 708 mmHg 55%
    05:00 +22°C° 0 mm 3 mps 708 mmHg 54%
    06:00 +22°C° 0 mm 3 mps 708 mmHg 54%
    07:00 +24°C° 0 mm 3 mps 708 mmHg 47%
    08:00 +26°C° 0 mm 3 mps 708 mmHg 41%
    09:00 +28°C° 0 mm 3 mps 709 mmHg 35%
    10:00 +29°C° 0 mm 3 mps 708 mmHg 32%
    11:00 +31°C° 0 mm 3 mps 708 mmHg 29%
    12:00 +32°C° 0 mm 2 mps 708 mmHg 27%
    13:00 +34°C° 0 mm 2 mps 708 mmHg 26%
    14:00 +35°C° 0 mm 2 mps 707 mmHg 24%
    15:00 +36°C° 0 mm 2 mps 707 mmHg 23%
    16:00 +36°C° 0 mm 2 mps 707 mmHg 23%
    17:00 +36°C° 0 mm 2 mps 706 mmHg 23%
    18:00 +35°C° 0 mm 2 mps 706 mmHg 23%
    19:00 +34°C° 0 mm 2 mps 706 mmHg 26%
    20:00 +31°C° 0 mm 2 mps 707 mmHg 29%
    21:00 +30°C° 0 mm 2 mps 707 mmHg 32%
    22:00 +28°C° 0 mm 2 mps 707 mmHg 35%
    23:00 +27°C° 0 mm 3 mps 707 mmHg 38%
    Mostrar más